Find Local Weather

World > North America > United States > Virginia

Richmond, Virginia Regional Weather

Lat: 37.48N, Lon: 77.47W
Wx Zone: VAZ096
Feedback

Richmond, VA Regional Weather

Expires:201903190700;;588765
ASUS41 KAKQ 190614
RWRAKQ

REGIONAL WEATHER ROUNDUP
NATIONAL WEATHER SERVICE WAKEFIELD VA
200 AM EDT TUE MAR 19 2019

Note: "fair" indicates few or no clouds below 12,000 feet with no
significant weather and/or obstructions to visibility. * = Denotes
station may not report precipitation (e.g., rain,snow,etc.),
thunder or fog.


VAZ088>098-190700-
SOUTHEAST VIRGINIA
  
CITY           SKY/WX    TMP DP  RH WIND       PRES   REMARKS
NORFOLK        FAIR      42  37  82 N12       30.36R                  
VIRGINIA BEACH FAIR      36  35  96 N5        30.36R                  
NORFOLK NAVAL  FAIR      40  35  83 NE7       30.38R                  
WEST POINT*    CLOUDY    32  32 100 CALM      30.40S VSB 1/4          
SALUDA*        FAIR      31  31 100 CALM      30.38R                  
NEWPORT NEWS   FAIR      33  30  88 CALM      30.37S                  
LANGLEY AFB    FAIR      38  36  89 N6        30.36S                  
FORT EUSTIS    FAIR      36  33  90 CALM      30.35S                  
WILLIAMSBURG*  FAIR      34  34 100 CALM      30.38F                  
HR EXEC AP*    FAIR      26  25  96 CALM      30.38R                  
FRANKLIN*        N/A     31  31  98 CALM      30.38R FOG              
US460-WAKEFLD  FOG       31  30  96 CALM      30.37F VSB 1/4          
$$


SKY/WX - Weather  TMP - Temperature  DP - Dew Point  RH - Relative Humidity
WIND - Wind Direction/Speed PRES - Barometric Pressure VSB - Visibility
WCI - Wind Chill Index E13G22 Wind - East Wind 13 mph/Gusts of 22 mph